CW0561 Weather Reports


Display with metric or nautical units.
time (UTC)temp
F
wind
direction
speed
MPH
gust
MPH
rain 1hr
in
rain 24hr
in
rain mn
in
humidity
%
barometer
mb
20240722235553 69 258 0.0 0.0 0.03 0.53 0.53 92 1012.6
20240722234553 69 258 0.0 0.0 0.07 0.53 0.53 91 1012.5
20240722233553 69 258 0.0 0.0 0.20 0.53 0.53 91 1012.2
20240722232554 69 259 0.0 0.0 0.53 0.53 0.53 91 1012.1
20240722231553 69 260 0.0 0.0 0.53 0.53 0.53 90 1012.3
20240722230553 70 186 0.0 0.0 0.52 0.52 0.52 89 1012.6
20240722224554 71 200 0.0 8.0 0.46 0.46 0.46 86 1013.1
20240722223553 73 339 0.0 8.0 0.33 0.33 0.33 82 1013.0
20240722222553 77 151 6.0 15.0 0.00 0.00 0.00 74 1012.1
20240722221553 81 17 6.0 8.0 0.00 0.00 0.00 64 1012.1
20240722220553 81 205 0.0 15.0 0.00 0.00 0.00 64 1011.3
20240722215553 81 211 0.0 6.0 0.00 0.00 0.00 65 1011.3
20240722214553 81 259 0.0 8.0 0.00 0.00 0.00 65 1011.4
20240722213554 81 220 0.0 9.0 0.00 0.00 0.00 64 1011.3
20240722212553 82 271 0.0 12.0 0.00 0.00 0.00 64 1011.5
20240722210552 82 196 0.0 8.0 0.00 0.00 0.00 61 1011.9
20240722205552 83 226 0.0 0.0 0.00 0.00 0.00 60 1012.1
20240722204552 83 215 0.0 9.0 0.00 0.00 0.00 59 1012.4
20240722203552 84 232 0.0 11.0 0.00 0.00 0.00 57 1012.4
20240722200552 84 219 5.0 6.0 0.00 0.00 0.00 55 1012.5
20240722195552 84 208 0.0 11.0 0.00 0.00 0.00 55 1012.6
20240722194552 84 287 0.0 6.0 0.00 0.00 0.00 58 1013.0
20240722193552 84 191 0.0 11.0 0.00 0.00 0.00 56 1013.0
20240722192551 84 257 0.0 17.0 0.00 0.00 0.00 57 1013.1
20240722191552 84 196 3.0 8.0 0.00 0.00 0.00 59 1013.2
20240722190551 83 209 3.0 12.0 0.00 0.00 0.00 60 1013.4
20240722184551 83 213 0.0 0.0 0.00 0.00 0.00 60 1013.8
20240722183551 83 214 0.0 6.0 0.00 0.00 0.00 60 1013.9
20240722181551 82 240 0.0 6.0 0.00 0.00 0.00 62 1014.3
20240722180551 83 213 0.0 9.0 0.00 0.00 0.00 61 1014.3
20240722175551 82 267 0.0 12.0 0.00 0.00 0.00 61 1014.4
20240722173551 82 239 0.0 0.0 0.00 0.00 0.00 62 1014.6
20240722172551 82 209 0.0 8.0 0.00 0.00 0.00 62 1014.6
20240722171551 82 289 0.0 9.0 0.00 0.00 0.00 63 1014.6
20240722170550 81 286 0.0 8.0 0.00 0.00 0.00 63 1014.6
20240722165551 81 269 0.0 9.0 0.00 0.00 0.00 64 1014.7
20240722164550 80 199 0.0 8.0 0.00 0.00 0.00 65 1014.8
20240722163550 80 194 0.0 9.0 0.00 0.00 0.00 63 1014.8
20240722161551 80 241 0.0 0.0 0.00 0.00 0.00 66 1015.1
20240722160550 80 223 0.0 0.0 0.00 0.00 0.00 65 1015.1
20240722154550 79 276 0.0 3.0 0.00 0.00 0.00 67 1015.1
20240722153549 78 316 0.0 3.0 0.00 0.00 0.00 68 1015.3
20240722152550 78 286 0.0 0.0 0.00 0.00 0.00 69 1015.4
20240722151549 77 287 0.0 8.0 0.00 0.00 0.00 69 1015.6
20240722150551 77 288 0.0 9.0 0.00 0.00 0.00 70 1015.6
20240722145549 76 277 0.0 11.0 0.00 0.00 0.00 71 1015.6
20240722144549 76 284 0.0 0.0 0.00 0.00 0.00 72 1015.8
20240722142549 75 258 0.0 0.0 0.00 0.20 0.00 75 1015.8
20240722141550 75 284 0.0 8.0 0.00 0.28 0.00 77 1016.1
20240722140549 74 272 0.0 8.0 0.00 0.34 0.00 78 1016.0
20240722134549 73 273 0.0 0.0 0.00 0.35 0.00 82 1016.0
20240722133549 73 272 0.0 0.0 0.00 0.35 0.00 83 1016.1
20240722132549 72 271 0.0 0.0 0.00 0.35 0.00 85 1016.0
20240722130549 70 273 0.0 2.0 0.00 0.35 0.00 87 1016.0
20240722125549 70 263 0.0 0.0 0.00 0.35 0.00 89 1016.1
20240722124548 69 264 0.0 0.0 0.00 0.35 0.00 90 1016.0
20240722123548 69 264 0.0 0.0 0.00 0.35 0.00 91 1016.0
20240722122549 68 263 0.0 0.0 0.00 0.35 0.00 92 1016.0
20240722121549 68 263 0.0 0.0 0.00 0.35 0.00 92 1016.0
20240722120548 67 263 0.0 0.0 0.00 0.35 0.00 92 1016.1
20240722115550 67 263 0.0 0.0 0.00 0.35 0.00 92 1016.2
20240722114549 67 263 0.0 0.0 0.00 0.35 0.00 92 1016.1
20240722113548 67 263 0.0 0.0 0.00 0.35 0.00 93 1016.3
20240722112548 66 263 0.0 0.0 0.00 0.35 0.00 92 1016.3
20240722111548 66 263 0.0 0.0 0.00 0.35 0.00 92 1016.3
20240722110548 66 263 0.0 0.0 0.00 0.35 0.00 92 1016.3
20240722105548 66 263 0.0 0.0 0.00 0.35 0.00 92 1016.3
20240722104548 66 263 0.0 0.0 0.00 0.35 0.00 92 1016.4
20240722103549 66 263 0.0 0.0 0.00 0.35 0.00 91 1016.2
20240722102548 66 263 0.0 0.0 0.00 0.35 0.00 92 1016.2
20240722101547 67 263 0.0 0.0 0.00 0.35 0.00 91 1016.0
20240722100548 67 263 0.0 0.0 0.00 0.35 0.00 91 1016.1
20240722095547 67 263 0.0 0.0 0.00 0.35 0.00 91 1016.1
20240722093547 67 263 0.0 0.0 0.00 0.35 0.00 91 1016.2
20240722092547 67 263 0.0 0.0 0.00 0.35 0.00 91 1016.4
20240722091547 67 263 0.0 0.0 0.00 0.35 0.00 91 1016.4
20240722085548 68 263 0.0 0.0 0.00 0.35 0.00 91 1016.6
20240722083547 67 263 0.0 0.0 0.00 0.35 0.00 91 1016.5
20240722082547 67 263 0.0 0.0 0.00 0.35 0.00 90 1016.4
20240722075547 68 263 0.0 0.0 0.00 0.35 0.00 89 1016.6
20240722074547 68 263 0.0 0.0 0.00 0.35 0.00 89 1016.6
20240722072546 69 263 0.0 0.0 0.00 0.35 0.00 88 1016.5
20240722071547 69 263 0.0 0.0 0.00 0.35 0.00 88 1016.7
20240722070546 69 263 0.0 0.0 0.00 0.35 0.00 88 1016.8
20240722065546 70 263 0.0 0.0 0.00 0.35 0.00 88 1016.9
20240722064546 70 263 0.0 0.0 0.00 0.35 0.00 88 1017.0
20240722063546 70 263 0.0 0.0 0.00 0.35 0.00 87 1017.2
20240722062546 70 263 0.0 0.0 0.00 0.35 0.00 87 1017.2
20240722061546 70 263 0.0 0.0 0.00 0.35 0.00 87 1017.3
20240722060546 70 263 0.0 0.0 0.00 0.35 0.00 87 1017.4
20240722054546 71 263 0.0 0.0 0.00 0.35 0.00 87 1017.6
20240722053546 71 263 0.0 0.0 0.00 0.35 0.00 87 1017.6
20240722052546 71 263 0.0 0.0 0.00 0.35 0.00 88 1017.7
20240722051546 71 263 0.0 0.0 0.00 0.35 0.00 88 1017.7
20240722050546 71 263 0.0 0.0 0.00 0.35 0.00 87 1017.6
20240722045545 71 263 0.0 0.0 0.00 0.35 0.35 87 1017.5
20240722044545 71 263 0.0 0.0 0.00 0.35 0.35 86 1017.6
20240722042546 71 263 0.0 0.0 0.00 0.35 0.35 84 1017.5
20240722041546 71 263 0.0 0.0 0.00 0.35 0.35 83 1017.7
20240722040545 71 263 0.0 0.0 0.00 0.35 0.35 82 1017.5
20240722035545 72 263 0.0 0.0 0.00 0.35 0.35 81 1017.6
20240722034545 72 263 0.0 0.0 0.00 0.35 0.35 81 1017.6
20240722033545 73 263 0.0 0.0 0.00 0.35 0.35 82 1017.7
20240722031545 74 263 0.0 0.0 0.00 0.35 0.35 83 1017.6
20240722025545 74 263 0.0 0.0 0.00 0.35 0.35 82 1017.6
20240722023545 75 263 0.0 0.0 0.00 0.35 0.35 80 1017.6
20240722022545 75 263 0.0 0.0 0.00 0.35 0.35 79 1017.3
20240722021544 75 263 0.0 0.0 0.00 0.35 0.35 79 1017.3
20240722015544 76 263 0.0 0.0 0.00 0.35 0.35 77 1017.1
20240722014544 76 263 0.0 0.0 0.00 0.35 0.35 76 1017.1
20240722013544 77 263 0.0 0.0 0.00 0.35 0.35 76 1017.1
20240722011544 77 263 0.0 0.0 0.00 0.35 0.35 74 1017.1
20240722010544 77 263 0.0 0.0 0.00 0.35 0.35 73 1017.1
20240722005544 78 265 0.0 0.0 0.00 0.35 0.35 73 1017.1
20240722003544 79 284 0.0 0.0 0.00 0.35 0.35 72 1016.9
20240722002544 79 284 0.0 0.0 0.00 0.35 0.35 71 1017.0
20240722000544 79 286 0.0 0.0 0.00 0.35 0.35 69 1016.8